Location: Baia Mare
(47.6567°N, 23.5850°E)
Time: 06:57:33
(UTC+03:00)

ISS - Pass Details

Date: 15 May 2018
Orbit: 402 x 407 km, 51.6° (Epoch: 24 May)

Event Time Altitude Azimuth Distance (km) Brightness Sun altitude
Exits shadow 03:47:35 12° 286° (WNW) 1,362 -1.4 -16.0°
Maximum altitude 03:50:26 39° 356° (N) 616 -2.5 -15.7°
Drops below altitude 10° 03:53:32 10° 68° (ENE) 1,458 -0.1 -15.4°
Sets 03:55:42 0° 76° (ENE) 2,318 0.9 -15.1°
